Regional Weather Roundup
Issued by NWS

Home | Current Version | Previous Version | Graphics & Text | Print | Product List | Glossary On
Versions: 1 2 3 4 5 6 7 8 9 10 11 12 13 14 15 16 17 18 19 20 21 22 23 24 25 26 27 28 29 30 31 32 33 34 35 36 37 38 39 40 41 42 43 44 45 46 47 48 49 50
000
ASUS43 KFSD 012210
RWRSD

WEATHER ROUNDUP FOR SOUTH DAKOTA
NATIONAL WEATHER SERVICE SIOUX FALLS SD
500 PM CDT TUE SEP 01 2015

NOTE: "FAIR" INDICATES FEW OR NO CLOUDS BELOW 12,000 FEET WITH NO
SIGNIFICANT WEATHER AND/OR OBSTRUCTIONS TO VISIBILITY.


SDZ001>005-009-010-012>017-012300-
NORTHWEST AND NORTH CENTRAL SOUTH DAKOTA

CITY           SKY/WX    TMP DP  RH WIND       PRES   REMARKS
BUFFALO          N/A     88  56  33 CALM      29.76F
FAITH            N/A     88  54  31 W6        29.80S
MOBRIDGE       SUNNY     91  66  43 SE15      29.74F
$$

SDZ012>016-024>037-041>051-057-063-072>074-012300-
SOUTHWEST AND SOUTH CENTRAL SOUTH DAKOTA

CITY           SKY/WX    TMP DP  RH WIND       PRES   REMARKS
RAPID CTY ARPT SUNNY     87  58  37 NE9       29.84F
PIERRE         SUNNY     93  60  33 SE17G28   29.75F
CUSTER         SUNNY     83  32  16 W14G20    30.01F
ELLSWORTH AFB  SUNNY     88  54  31 VRB2      29.84F
PHILIP         SUNNY     95  51  22 SW7       29.75F
PINE RIDGE     SUNNY     94  36  13 W9        29.85F
WINNER         FAIR      88  59  37 SE14G23   29.83F
$$

SDZ004>011-016>023-039-040-012300-
NORTHEAST SOUTH DAKOTA

CITY           SKY/WX    TMP DP  RH WIND       PRES   REMARKS
ABERDEEN       SUNNY     86  71  60 S15       29.81F
WATERTOWN      CLOUDY    79  65  62 SW15      29.88R
BROOKINGS      CLOUDY    73  68  83 CALM      29.91F
SISSETON         N/A     85  72  65 S10       29.82R
$$

SDZ017-020-022-023-036>040-048>070-012300-
SOUTHEAST SOUTH DAKOTA

CITY           SKY/WX    TMP DP  RH WIND       PRES   REMARKS
SIOUX FALLS    CLOUDY    79  68  69 CALM      29.88R
HURON          MOSUNNY   85  61  44 SE15      29.80F
CHAMBERLAIN    SUNNY     83  67  59 SE15      29.83S
MITCHELL       PTSUNNY   82  71  69 SE12      29.83R
YANKTON        CLOUDY    82  70  65 SE5       29.82F
$$

ABBREVIATIONS USED IN REMARKS
   TC - TEMPERATURE IN CELSIUS
  WCI - WIND CHILL INDEX
   HX - HEAT INDEX
  VSB - VISIBILITY




USA.gov is the U.S. government's official web portal to all federal, state and local government web resources and services.